Wind_Speed
10 6 7 2 4 4 2 1 5 4 4 2 9 13 8 3 3 4 16 24 23 21 17 15 13 13 13 13 13 14 13 13 13 14 14 14 15 15 15 14 14 15 15 16 15 14 15 14 13
7 5 3 1 4 1 3 4 6 5 5 7 10 7 6 4 4 8 16 24 22 22 18 17 14 13 13 12 13 13 13 13 12 13 13 14 14 15 16 15 15 14 14 13 12 14 15 13 12
6 3 2 3 1 2 2 4 8 5 6 3 4 5 4 5 6 12 24 24 27 22 20 17 15 14 12 12 12 12 12 12 13 13 13 14 14 15 15 15 15 15 14 14 12 11 11 11 10
3 5 3 2 1 4 4 6 9 6 2 5 6 7 5 5 8 18 25 30 28 23 21 16 15 14 13 12 11 12 11 11 11 12 13 13 13 13 14 14 15 15 15 15 14 13 11 9 10
3 2 1 1 4 7 2 8 9 7 7 2 7 2 4 8 25 26 26 28 24 22 19 16 15 14 13 12 12 12 12 12 12 11 11 12 12 12 13 14 14 15 14 14 14 13 13 14 14
2 1 1 2 5 6 1 9 8 7 7 6 6 6 5 25 27 24 26 25 22 21 19 17 16 15 13 12 13 11 10 10 10 11 10 11 12 14 14 14 13 13 13 13 13 14 14 14 15
4 2 4 5 4 4 8 8 8 8 7 4 10 4 5 11 25 22 24 26 25 20 19 21 17 15 14 11 10 12 12 11 12 13 12 9 11 11 10 11 13 14 15 15 15 15 14 13 11
3 3 3 4 6 7 4 5 7 7 3 3 7 6 6 11 26 21 23 29 23 23 22 22 19 16 14 12 10 9 10 11 12 13 14 12 12 13 13 13 14 13 15 16 17 14 14 15 14
0 1 3 4 6 6 5 6 3 3 7 4 3 4 12 32 28 23 22 28 28 24 26 23 19 16 15 12 10 10 11 13 12 11 11 9 10 13 15 15 13 15 12 13 13 13 13 13 12
4 3 7 3 5 3 1 5 8 5 5 4 6 10 26 30 30 21 18 21 24 29 29 27 22 19 17 14 12 13 12 11 11 12 11 11 12 11 12 11 11 14 13 14 15 15 14 15 15
5 5 2 5 0 4 9 6 3 9 3 8 11 11 16 15 22 18 19 24 34 34 27 29 23 20 16 14 16 14 12 12 12 10 11 12 12 12 11 13 14 14 14 14 14 14 14 13 14
2 4 3 9 1 5 3 8 5 5 5 4 11 14 8 9 10 15 14 19 32 25 29 25 24 23 15 17 13 15 14 11 10 9 10 10 11 11 12 13 13 13 13 14 14 15 15 14 13
5 4 5 5 6 6 7 4 5 6 6 9 11 10 10 9 11 14 15 17 30 23 24 23 26 21 19 18 19 16 14 11 10 12 12 10 12 12 11 11 11 13 12 15 16 17 18 19 18
5 6 3 4 5 4 7 2 3 2 6 9 10 10 9 10 14 19 15 26 29 29 27 27 26 21 20 17 16 15 13 10 13 13 12 11 11 10 8 9 10 12 13 14 15 17 18 19 19
4 5 4 1 1 3 4 5 6 3 4 8 8 7 8 10 14 15 27 30 29 25 24 23 24 21 17 17 15 14 11 12 13 12 11 12 10 9 7 8 10 10 10 11 13 14 15 18 20
5 5 4 1 5 2 2 3 7 7 5 3 6 6 6 6 7 17 28 34 30 26 23 22 21 20 20 17 14 14 12 12 11 9 9 9 9 6 5 6 6 7 8 9 12 15 17 18 21
1 5 4 2 3 5 3 4 2 4 8 7 5 7 7 7 8 18 18 30 31 28 26 22 19 21 17 12 15 14 12 12 11 8 7 7 7 5 3 3 3 5 7 8 11 13 15 17 21
5 4 3 6 6 3 3 5 6 7 4 8 6 3 7 8 8 21 24 32 29 26 24 22 18 19 16 16 16 14 12 12 9 9 6 4 4 4 3 2 2 5 7 8 11 12 14 16 20
7 8 10 3 6 5 5 6 8 8 5 7 6 4 2 7 7 25 31 33 32 28 23 20 16 21 21 18 18 14 12 12 11 10 9 8 7 6 5 4 5 5 7 8 11 13 15 19 17
13 6 4 4 6 5 7 9 9 7 3 6 7 6 0 3 7 15 28 31 32 28 23 22 19 19 18 17 15 12 15 16 16 15 14 13 13 11 9 8 8 8 8 11 12 13 15 14 16
15 8 6 7 3 3 5 6 6 2 5 6 5 5 5 4 8 7 18 28 28 27 26 24 21 21 21 17 15 11 9 7 12 15 16 16 14 13 13 12 11 11 12 13 14 14 13 12 14
11 5 8 13 8 5 6 4 5 7 6 5 6 7 5 5 1 7 12 21 24 20 22 23 23 24 21 18 17 15 12 10 10 11 14 15 14 14 14 13 14 13 12 13 14 13 14 16 18
4 5 9 8 6 5 3 3 6 7 5 4 5 6 5 5 2 8 12 24 23 20 20 17 21 22 21 20 20 18 13 11 10 8 9 12 13 14 13 15 12 12 12 12 13 16 18 18 18
7 7 8 5 4 1 8 6 3 4 6 4 3 3 5 7 5 8 20 24 21 18 19 16 12 9 13 17 16 15 13 13 14 13 7 7 10 9 4 5 7 9 13 16 19 20 20 20 21
6 6 3 2 1 5 4 5 5 5 6 8 8 5 6 7 8 8 8 11 14 14 13 10 7 5 1 2 7 11 13 12 13 9 7 4 4 6 9 11 14 17 20 21 21 22 23 24 24
4 6 5 6 5 4 3 4 4 5 7 8 8 7 7 8 7 8 9 11 11 9 5 2 1 3 6 7 2 1 4 5 7 7 7 6 9 12 14 17 19 20 21 25 25 25 26 26 26
4 2 4 3 1 4 3 3 4 5 7 7 8 8 7 8 8 8 14 19 18 16 15 14 10 7 5 4 2 2 3 1 3 4 6 10 12 13 16 20 23 23 23 24 24 26 27 27 27
2 3 3 2 2 3 2 4 4 8 7 7 7 8 7 7 8 8 12 15 13 11 9 7 6 6 4 3 4 4 6 7 7 5 8 11 14 16 16 17 18 20 22 24 25 26 27 28 30
1 1 1 3 4 4 1 4 6 10 11 11 9 8 8 8 7 7 10 11 10 8 6 5 3 2 3 4 5 5 8 9 10 11 11 11 13 17 19 20 22 23 24 25 26 26 26 26 26
1 3 5 4 4 1 4 5 5 11 11 12 9 8 7 8 8 7 9 8 9 8 4 1 2 5 7 7 5 3 4 7 10 12 12 16 20 21 22 23 25 26 27 27 27 28 28 25 27
Wind_Direction
327 307 292 347 37 67 243 115 144 98 70 90 52 91 117 88 43 151 130 142 139 138 137 129 121 114 106 98 94 91 90 88 83 79 77 74 71 70 70 70 68 66 64 65 62 63 61 57 55
341 337 181 67 78 37 272 105 107 110 146 100 107 114 69 57 82 130 120 143 144 134 136 131 123 119 112 103 100 96 92 91 87 83 80 78 77 74 72 70 68 67 66 64 63 61 58 53 51
333 280 80 115 109 193 245 146 135 120 141 133 96 98 93 114 111 142 138 145 136 137 136 130 125 120 118 106 103 100 95 90 87 84 81 80 80 76 74 71 69 67 65 62 60 63 63 49 50
304 6 359 116 182 239 162 166 127 114 340 38 99 70 63 137 125 143 140 137 139 139 136 129 124 121 115 111 108 101 97 92 90 85 82 82 80 76 73 71 68 66 65 62 58 56 56 51 44
273 69 314 162 314 324 100 143 137 145 154 203 113 97 73 89 131 141 142 143 136 134 136 128 125 123 117 107 107 105 101 93 87 87 88 85 81 76 73 69 73 69 65 63 59 54 52 51 48
350 117 316 78 241 317 356 162 156 154 144 131 93 110 160 140 140 153 151 148 137 138 137 131 128 126 124 108 106 104 104 97 91 91 90 88 84 83 74 71 66 64 59 51 49 51 50 48 46
135 97 238 132 220 181 215 186 147 167 148 165 153 93 156 151 149 158 151 149 146 141 148 140 132 131 127 126 115 107 105 101 89 97 88 86 91 79 68 62 62 60 54 52 51 51 44 30 41
139 132 270 154 195 238 224 135 146 127 183 126 127 159 186 184 158 162 154 150 153 156 148 141 139 140 134 130 122 108 100 91 91 97 87 76 72 69 63 66 59 57 53 46 52 47 49 49 46
23 49 254 234 184 234 196 120 42 115 113 60 86 137 168 161 159 172 161 148 155 152 148 149 145 144 137 140 128 112 96 95 93 98 106 75 69 69 64 63 65 57 55 48 50 39 36 42 43
139 169 230 163 194 16 58 118 133 113 112 77 66 74 142 156 163 176 175 158 147 151 159 158 154 148 137 135 125 116 105 104 93 103 114 89 85 85 72 62 72 65 60 54 51 41 40 38 31
202 202 345 307 215 267 182 161 129 119 189 176 159 146 147 160 172 180 187 156 165 161 159 159 154 151 139 132 131 131 132 126 118 126 111 104 98 90 74 67 64 64 58 55 48 40 34 34 29
205 255 348 301 291 38 200 140 133 138 149 166 164 156 152 158 177 189 181 169 157 157 162 160 153 154 139 137 149 147 148 152 135 123 125 121 106 94 80 72 63 60 53 50 42 34 32 27 19
172 235 278 346 45 337 273 123 159 156 139 100 139 141 152 162 179 196 206 155 142 155 151 156 155 148 141 142 140 145 143 143 139 117 112 115 111 101 93 82 70 60 53 47 41 35 29 23 16
181 214 226 21 28 30 15 107 91 44 137 105 125 155 165 175 187 200 154 137 135 130 136 143 143 147 152 150 148 145 151 151 138 127 124 116 113 107 98 84 71 59 54 44 36 28 21 15 8
120 100 116 84 112 346 323 18 321 91 113 121 138 174 178 189 193 188 147 143 141 137 133 137 142 150 153 154 156 155 157 147 138 136 140 127 116 112 99 79 63 53 45 34 26 17 11 3 358
116 87 112 260 137 335 79 186 6 31 69 123 174 188 186 201 169 144 141 145 145 141 140 138 145 152 155 158 162 154 151 148 145 140 135 130 123 117 99 73 55 37 33 19 10 3 357 353 349
219 166 148 152 163 133 126 224 260 327 10 324 250 177 187 188 147 143 141 148 144 143 144 138 151 156 156 156 154 160 159 161 162 172 166 153 147 137 140 95 47 0 4 358 352 350 346 340 340
163 159 192 170 205 123 170 237 271 276 233 249 245 269 208 183 183 158 141 146 144 150 154 153 149 159 154 155 162 166 168 168 178 188 188 191 202 210 216 211 292 321 332 334 336 334 331 327 332
184 188 191 140 170 120 223 256 240 236 239 225 170 294 314 235 207 152 142 147 149 154 156 160 158 159 159 164 166 174 185 188 187 184 189 195 209 234 259 260 268 281 306 315 322 322 320 324 327
228 193 132 12 133 140 195 230 228 233 212 168 145 123 355 12 149 144 142 147 152 155 157 160 170 173 178 181 185 202 206 210 213 212 219 230 232 241 239 251 252 275 286 302 311 317 315 311 324
226 189 188 169 180 350 112 298 260 245 130 135 102 100 38 2 155 167 149 152 151 159 164 169 182 188 187 188 197 191 171 174 194 208 214 229 247 247 240 256 262 272 282 296 303 308 308 310 313
219 221 147 137 126 198 155 251 297 168 138 100 86 56 19 15 131 177 147 151 157 159 171 180 186 185 192 195 203 211 223 226 234 250 256 248 241 239 244 253 254 265 276 287 293 294 296 303 303
216 87 139 144 154 109 201 102 268 126 123 127 72 53 5 349 48 165 153 159 161 167 174 174 190 196 202 205 209 218 224 238 259 275 254 235 225 234 256 253 251 263 273 278 284 292 296 294 292
153 77 42 56 99 29 221 151 268 213 165 135 86 68 26 357 50 124 157 160 163 167 176 183 177 181 212 215 217 225 232 244 253 263 280 264 251 246 233 257 277 286 290 293 297 299 296 295 291
78 85 47 31 46 220 279 148 229 163 151 152 140 119 65 49 69 86 94 117 151 144 144 153 177 196 201 243 240 240 248 241 244 244 266 266 267 286 292 294 294 294 295 296 296 295 293 294 291
156 148 151 175 184 225 356 171 235 165 121 130 120 114 84 71 80 86 97 101 103 99 101 126 173 253 266 272 338 312 227 237 251 264 263 283 299 302 301 296 295 296 295 298 298 293 290 289 287
237 178 195 116 285 93 179 65 12 128 122 111 124 112 108 97 83 82 83 86 86 83 79 81 86 93 77 82 67 70 65 31 319 303 297 298 299 299 299 301 300 298 297 296 293 289 289 288 286
168 194 78 358 201 217 195 165 209 180 168 155 134 135 126 108 97 89 88 91 90 88 82 74 65 55 29 328 323 352 346 343 343 337 329 320 315 313 311 309 305 304 303 301 298 294 293 291 289
356 38 76 129 149 170 164 261 205 177 171 161 162 158 151 140 133 127 127 131 134 132 123 120 137 224 240 243 258 297 321 325 324 323 327 325 320 316 312 310 308 307 305 303 301 299 298 295 292
216 204 147 121 268 207 136 253 292 180 169 156 165 150 141 139 141 151 150 130 112 104 105 163 233 249 249 247 251 275 308 324 327 323 317 315 314 312 311 310 309 307 306 305 302 299 297 300 300
Height
782 781 781 783 810 811 813 801 787 792 792 781 780 789 803 800 808 829 807 809 813 816 819 821 823 824 825 826 826 826 827 827 828 828 827 827 827 826 826 826 826 826 826 827 826 826 826 826 825
780 779 781 787 819 821 820 790 801 790 784 779 784 789 797 811 799 804 808 809 812 815 819 821 823 825 826 826 826 827 827 828 829 829 829 828 828 828 827 827 827 827 827 827 827 827 827 827 826
780 780 789 804 810 826 815 794 792 785 779 780 786 785 792 806 801 803 807 808 813 815 818 821 823 825 826 827 827 828 828 829 829 830 830 830 830 830 829 829 829 829 829 828 828 828 828 828 827
780 780 787 808 809 799 792 792 783 785 779 778 785 802 793 795 799 802 806 808 812 816 818 821 823 825 826 827 828 828 829 830 830 831 831 831 831 832 831 831 831 831 830 830 829 829 828 828 828
780 787 806 809 804 793 783 779 780 787 785 783 785 805 804 798 799 803 806 808 811 816 818 821 823 825 827 828 829 829 830 831 831 831 832 832 833 833 833 832 832 832 832 831 831 830 829 829 828
790 789 812 825 818 794 780 774 777 784 783 784 792 800 804 799 800 803 806 807 811 814 818 821 824 826 827 829 830 831 831 832 832 833 833 833 833 833 833 833 833 833 832 832 831 831 831 830 830
792 801 810 811 811 798 783 769 781 784 785 784 783 802 802 799 800 802 805 807 810 812 816 819 823 826 828 829 831 832 832 832 833 834 834 834 834 834 834 833 833 833 833 832 832 832 832 832 831
784 794 799 804 812 798 770 769 770 776 784 772 778 801 808 796 799 802 805 806 808 812 815 819 821 824 827 830 832 832 833 833 834 835 835 836 836 835 835 834 835 835 834 834 834 833 833 832 832
773 803 809 796 796 783 767 773 767 769 777 776 778 781 781 792 797 801 804 807 810 814 815 818 820 823 825 829 831 833 834 835 835 836 836 837 836 836 836 836 837 836 835 835 834 834 833 833 832
786 805 793 774 775 774 769 770 772 777 782 785 785 781 785 791 795 798 801 804 810 813 814 816 818 822 823 827 831 833 834 835 835 836 837 837 837 837 837 837 836 836 836 835 835 834 834 833 832
779 794 776 769 765 768 768 774 766 781 788 783 788 786 786 790 793 796 798 800 804 809 813 816 818 822 823 826 830 833 834 835 836 836 837 837 838 838 838 838 837 837 837 836 836 835 834 833 833
783 778 777 772 764 766 769 767 774 775 777 770 775 778 784 788 791 794 797 799 805 809 812 817 818 820 823 827 829 832 833 834 836 836 837 837 838 839 839 838 838 838 838 837 836 836 835 835 834
778 780 779 771 770 772 767 772 773 776 772 771 773 779 784 787 790 792 795 799 802 809 810 815 818 820 822 826 829 831 832 834 835 836 837 838 838 839 839 839 839 839 838 838 837 837 836 835 834
771 774 777 775 775 777 777 775 769 772 772 775 778 782 784 786 788 791 795 799 802 807 810 814 818 821 823 826 828 831 833 834 836 837 838 838 839 839 840 840 840 839 839 839 838 837 837 836 835
768 781 777 778 779 787 782 791 788 773 774 778 782 786 785 786 788 789 793 797 801 806 810 814 818 821 823 827 829 831 833 835 836 838 839 838 839 840 840 840 840 840 839 839 838 838 837 836 835
777 782 799 783 781 787 788 804 788 778 776 780 783 785 788 787 787 790 793 797 801 805 809 814 816 819 823 827 829 831 834 836 837 837 838 839 840 840 840 840 840 840 840 839 838 837 836 835 834
784 805 796 792 780 788 795 801 789 783 784 785 784 783 786 787 788 789 792 796 800 804 808 813 817 821 824 827 830 833 834 835 836 837 838 839 840 840 840 840 840 839 839 838 837 837 835 833 832
798 794 792 798 788 786 799 798 793 783 781 783 780 784 787 786 785 786 789 794 799 804 809 814 818 822 824 827 830 832 834 835 836 836 837 838 839 839 839 839 839 838 838 838 837 836 835 833 831
775 784 788 786 782 790 802 796 790 779 778 780 776 785 788 789 784 784 788 792 798 803 808 813 818 822 824 827 829 831 832 833 834 834 835 835 836 837 837 838 838 837 836 836 836 835 833 831 830
772 781 790 789 779 788 797 794 781 777 775 777 778 782 783 787 787 787 789 792 796 801 806 811 817 821 823 826 828 829 829 830 831 832 832 832 833 834 835 835 835 835 834 834 834 833 831 830 829
770 781 794 789 789 784 790 800 787 776 777 777 778 779 782 784 786 787 788 790 795 801 805 810 815 818 820 823 826 827 828 828 829 830 829 829 830 830 831 831 832 832 831 831 830 830 829 827 826
773 758 763 780 795 813 790 825 791 786 786 787 786 785 784 784 784 785 788 792 795 800 804 809 812 815 817 820 822 824 825 826 827 827 827 826 827 827 828 827 827 828 828 827 827 826 825 824 822
769 756 768 775 789 798 797 817 803 788 796 792 790 787 785 783 782 785 788 792 795 799 803 807 810 813 815 817 819 821 822 824 825 825 824 824 825 825 825 824 825 824 824 823 823 822 821 820 819
757 767 779 784 797 818 798 806 807 798 795 795 792 789 786 784 781 784 789 792 795 799 803 806 810 813 815 817 818 819 820 821 822 822 822 823 823 822 822 823 823 822 822 821 819 818 816 815 814
765 785 818 821 824 823 787 803 795 791 788 792 794 792 790 789 788 790 793 795 798 800 803 806 809 812 815 817 818 817 817 817 818 819 819 820 820 820 820 819 818 817 816 815 814 814 812 810 808
773 782 808 811 824 807 777 804 798 787 787 789 790 792 793 794 794 795 797 799 801 803 805 807 809 812 813 814 815 815 816 816 817 817 817 818 818 818 817 816 815 813 812 811 810 807 806 804 802
771 782 772 788 781 807 800 798 792 789 791 794 796 795 796 797 798 799 800 801 803 805 807 808 810 812 813 813 813 813 814 814 815 815 816 816 816 815 814 813 811 810 808 805 804 801 799 798 797
765 765 788 796 799 802 796 806 804 798 797 796 799 799 798 798 800 801 802 804 806 807 808 809 810 811 812 813 813 813 814 814 814 814 814 814 813 812 811 810 808 806 804 802 799 796 794 791 789
775 776 774 783 793 806 810 807 782 789 789 794 797 797 798 800 802 803 804 806 807 809 810 811 811 811 811 811 811 812 813 813 813 812 810 810 810 809 806 805 803 800 797 795 793 791 788 784 782
765 768 775 801 791 793 809 810 778 779 782 786 794 794 797 799 802 804 806 808 809 810 810 810 810 810 810 810 810 809 810 810 810 809 809 807 805 804 803 800 798 796 793 790 787 783 781 778 777